Location: Sungai Lasa
(2.4500°N, 113.4500°E)
Time: 04:37:44
(UTC+00:00)

Cosmos 1709 Rocket - Pass Details

Date: 03 February 2023
Orbit: 948 x 1001 km, 82.9° (Epoch: 26 March)

Event Time Altitude Azimuth Distance (km) Brightness Sun altitude
Exits shadow 12:56:21 58° 217° (SW) 1,097 4.3 -33.3°
Drops below altitude 10° 13:01:23 10° 185° (S) 2,677 6.5 -34.5°
Sets 13:03:54 0° 182° (S) 3,629 7.2 -35.1°
